Location: Clarion
(42.7316°N, 93.7330°W)
Time: 08:41:08
(UTC+00:00)

Geosat - Pass Details

Date: 22 April 2026
Orbit: 758 x 760 km, 108.0° (Epoch: 17 May)

Event Time Altitude Azimuth Distance (km) Brightness Sun altitude
Rises 02:35:28 0° 30° (NNE) 3,228 7.3 -15.9°
Reaches altitude 10° 02:37:47 10° 34° (NNE) 2,298 6.5 -16.2°
Maximum altitude 02:42:44 60° 114° (ESE) 865 3.9 -17.0°
Drops below altitude 10° 02:47:39 10° 194° (SSW) 2,282 6.2 -17.7°
Sets 02:49:56 0° 198° (SSW) 3,203 7.0 -18.0°
